Time,TemperatureF,DewpointF,PressureIn,WindDirection,WindDirectionDegrees,WindSpeedMPH,WindSpeedGustMPH,Humidity,HourlyPrecipIn,Conditions,Clouds,dailyrainin,SolarRadiationWatts/m^2,SoftwareType,DateUTC
2013-07-10 00:01:00,84.6,69.2,29.93,South,191,0.0,0.0,60,0.00,,CLR,0.00,0.00,VWS V14.01,2013-07-10 05:01:00,
2013-07-10 00:06:00,84.6,69.2,29.93,South,190,0.0,0.0,60,0.00,,CLR,0.00,0.00,VWS V14.01,2013-07-10 05:06:00,
2013-07-10 00:11:00,84.6,69.2,29.93,South,190,0.0,0.0,60,0.00,,CLR,0.00,0.00,VWS V14.01,2013-07-10 05:11:00,
2013-07-10 00:16:00,84.4,69.0,29.94,South,190,0.0,3.0,60,0.00,,CLR,0.00,0.00,VWS V14.01,2013-07-10 05:16:00,
2013-07-10 00:21:00,84.2,68.8,29.94,South,189,0.0,0.0,60,0.00,,CLR,0.00,0.00,VWS V14.01,2013-07-10 05:21:00,
2013-07-10 00:26:00,84.2,68.8,29.94,South,182,0.0,0.0,60,0.00,,CLR,0.00,0.00,VWS V14.01,2013-07-10 05:26:00,
2013-07-10 00:31:00,84.0,69.1,29.94,South,184,0.0,0.0,61,0.00,,CLR,0.00,0.00,VWS V14.01,2013-07-10 05:31:00,
2013-07-10 00:36:00,83.8,68.9,29.94,South,184,0.0,0.0,61,0.00,,CLR,0.00,0.00,VWS V14.01,2013-07-10 05:36:00,
2013-07-10 00:41:00,83.8,68.9,29.94,South,184,0.0,0.0,61,0.00,,CLR,0.00,0.00,VWS V14.01,2013-07-10 05:41:00,
2013-07-10 00:46:00,83.6,68.7,29.94,South,186,0.0,4.0,61,0.00,,CLR,0.00,0.00,VWS V14.01,2013-07-10 05:46:00,
2013-07-10 00:51:00,83.4,68.6,29.94,South,182,0.0,0.0,61,0.00,,CLR,0.00,0.00,VWS V14.01,2013-07-10 05:51:00,
2013-07-10 00:56:00,83.2,68.4,29.94,South,182,4.0,4.0,61,0.00,,CLR,0.00,0.00,VWS V14.01,2013-07-10 05:56:00,
2013-07-10 01:01:00,83.2,68.4,29.94,South,183,0.0,1.0,61,0.00,,CLR,0.00,0.00,VWS V14.01,2013-07-10 06:01:00,
2013-07-10 01:06:00,83.2,68.8,29.94,South,185,0.0,0.0,62,0.00,,CLR,0.00,0.00,VWS V14.01,2013-07-10 06:06:00,
2013-07-10 01:11:00,83.0,68.7,29.94,South,185,0.0,0.0,62,0.00,,CLR,0.00,0.00,VWS V14.01,2013-07-10 06:11:00,
2013-07-10 01:16:00,83.0,68.7,29.94,South,185,0.0,0.0,62,0.00,,CLR,0.00,0.00,VWS V14.01,2013-07-10 06:16:00,
2013-07-10 01:21:00,82.8,68.5,29.94,South,185,0.0,0.0,62,0.00,,CLR,0.00,0.00,VWS V14.01,2013-07-10 06:21:00,
2013-07-10 01:26:00,82.6,68.3,29.94,South,186,0.0,0.0,62,0.00,,CLR,0.00,0.00,VWS V14.01,2013-07-10 06:26:00,
2013-07-10 01:31:00,82.6,68.3,29.94,South,186,0.0,0.0,62,0.00,,CLR,0.00,0.00,VWS V14.01,2013-07-10 06:31:00,
2013-07-10 01:36:00,82.5,68.6,29.94,South,186,0.0,0.0,63,0.00,,CLR,0.00,0.00,VWS V14.01,2013-07-10 06:36:00,
2013-07-10 01:41:00,82.5,68.6,29.94,South,187,0.0,0.0,63,0.00,,CLR,0.00,0.00,VWS V14.01,2013-07-10 06:41:00,
2013-07-10 01:46:00,82.3,68.5,29.94,South,186,0.0,0.0,63,0.00,,CLR,0.00,0.00,VWS V14.01,2013-07-10 06:46:00,
2013-07-10 01:51:00,82.1,68.3,29.94,South,184,0.0,0.0,63,0.00,,CLR,0.00,0.00,VWS V14.01,2013-07-10 06:51:00,
2013-07-10 01:56:00,82.1,68.3,29.94,South,185,0.0,0.0,63,0.00,,CLR,0.00,0.00,VWS V14.01,2013-07-10 06:56:00,
2013-07-10 02:01:00,81.9,68.1,29.93,South,185,0.0,0.0,63,0.00,,CLR,0.00,0.00,VWS V14.01,2013-07-10 07:01:00,
2013-07-10 02:06:00,81.7,67.9,29.93,South,186,0.0,0.0,63,0.00,,CLR,0.00,0.00,VWS V14.01,2013-07-10 07:06:00,
2013-07-10 02:11:00,81.7,67.9,29.93,South,186,1.0,1.0,63,0.00,,CLR,0.00,0.00,VWS V14.01,2013-07-10 07:11:00,
2013-07-10 02:16:00,81.5,67.7,29.93,South,186,0.0,0.0,63,0.00,,CLR,0.00,0.00,VWS V14.01,2013-07-10 07:16:00,
2013-07-10 02:21:00,81.3,67.5,29.93,South,186,0.0,0.0,63,0.00,,CLR,0.00,0.00,VWS V14.01,2013-07-10 07:21:00,
2013-07-10 02:26:00,81.3,68.0,29.93,South,186,0.0,0.0,64,0.00,,CLR,0.00,0.00,VWS V14.01,2013-07-10 07:26:00,
2013-07-10 02:31:00,81.1,67.8,29.93,South,186,0.0,0.0,64,0.00,,CLR,0.00,0.00,VWS V14.01,2013-07-10 07:31:00,
2013-07-10 02:36:00,80.9,67.6,29.93,South,186,0.0,0.0,64,0.00,,CLR,0.00,0.00,VWS V14.01,2013-07-10 07:36:00,
2013-07-10 02:41:00,80.9,67.6,29.93,South,186,0.0,0.0,64,0.00,,CLR,0.00,0.00,VWS V14.01,2013-07-10 07:41:00,
2013-07-10 02:46:00,80.7,67.4,29.92,South,186,0.0,0.0,64,0.00,,CLR,0.00,0.00,VWS V14.01,2013-07-10 07:46:00,
2013-07-10 02:51:00,80.5,67.2,29.92,South,186,0.0,0.0,64,0.00,,CLR,0.00,0.00,VWS V14.01,2013-07-10 07:51:00,
2013-07-10 02:56:00,80.5,67.2,29.92,South,186,0.0,0.0,64,0.00,,CLR,0.00,0.00,VWS V14.01,2013-07-10 07:56:00,
2013-07-10 03:01:00,80.3,67.0,29.92,South,186,0.0,0.0,64,0.00,,CLR,0.00,0.00,VWS V14.01,2013-07-10 08:01:00,
2013-07-10 03:06:00,80.1,66.8,29.92,South,186,0.0,0.0,64,0.00,,CLR,0.00,0.00,VWS V14.01,2013-07-10 08:06:00,
2013-07-10 03:11:00,80.1,66.8,29.92,South,186,0.0,0.0,64,0.00,,CLR,0.00,0.00,VWS V14.01,2013-07-10 08:11:00,
2013-07-10 03:16:00,80.1,66.8,29.92,South,186,0.0,0.0,64,0.00,,CLR,0.00,0.00,VWS V14.01,2013-07-10 08:16:00,
2013-07-10 03:21:00,79.9,66.7,29.92,South,186,0.0,0.0,64,0.00,,CLR,0.00,0.00,VWS V14.01,2013-07-10 08:21:00,
2013-07-10 03:26:00,79.9,66.7,29.92,South,186,0.0,0.0,64,0.00,,CLR,0.00,0.00,VWS V14.01,2013-07-10 08:26:00,
2013-07-10 03:31:00,79.7,66.5,29.92,South,186,0.0,0.0,64,0.00,,CLR,0.00,0.00,VWS V14.01,2013-07-10 08:31:00,
2013-07-10 03:36:00,79.7,66.5,29.92,South,186,0.0,0.0,64,0.00,,CLR,0.00,0.00,VWS V14.01,2013-07-10 08:36:00,
2013-07-10 03:41:00,79.6,66.4,29.92,South,186,0.0,0.0,64,0.00,,CLR,0.00,0.00,VWS V14.01,2013-07-10 08:41:00,
2013-07-10 03:46:00,79.6,66.4,29.93,South,186,0.0,0.0,64,0.00,,CLR,0.00,0.00,VWS V14.01,2013-07-10 08:46:00,
2013-07-10 03:51:00,79.4,65.7,29.93,South,186,0.0,0.0,63,0.00,,CLR,0.00,0.00,VWS V14.01,2013-07-10 08:51:00,
2013-07-10 03:56:00,79.4,65.7,29.93,South,186,0.0,0.0,63,0.00,,CLR,0.00,0.00,VWS V14.01,2013-07-10 08:56:00,
2013-07-10 04:01:00,79.2,65.1,29.93,South,186,0.0,0.0,62,0.00,,CLR,0.00,0.00,VWS V14.01,2013-07-10 09:01:00,
2013-07-10 04:06:00,79.2,65.5,29.93,South,186,0.0,0.0,63,0.00,,CLR,0.00,0.00,VWS V14.01,2013-07-10 09:06:00,
2013-07-10 04:11:00,79.4,65.7,29.93,South,186,0.0,0.0,63,0.00,,CLR,0.00,0.00,VWS V14.01,2013-07-10 09:11:00,
2013-07-10 04:16:00,79.2,65.5,29.94,South,186,0.0,0.0,63,0.00,,CLR,0.00,0.00,VWS V14.01,2013-07-10 09:16:00,
2013-07-10 04:21:00,79.2,65.5,29.94,South,186,0.0,0.0,63,0.00,,CLR,0.00,0.00,VWS V14.01,2013-07-10 09:21:00,
2013-07-10 04:26:00,79.2,65.5,29.94,South,186,0.0,0.0,63,0.00,,CLR,0.00,0.00,VWS V14.01,2013-07-10 09:26:00,
2013-07-10 04:31:00,79.2,65.5,29.94,South,186,0.0,0.0,63,0.00,,CLR,0.00,0.00,VWS V14.01,2013-07-10 09:31:00,
2013-07-10 04:36:00,79.2,66.0,29.94,South,186,0.0,0.0,64,0.00,,CLR,0.00,0.00,VWS V14.01,2013-07-10 09:36:00,
2013-07-10 04:41:00,79.2,66.0,29.94,South,186,0.0,0.0,64,0.00,,CLR,0.00,0.00,VWS V14.01,2013-07-10 09:41:00,
2013-07-10 04:46:00,79.2,66.0,29.94,South,186,0.0,0.0,64,0.00,,CLR,0.00,0.00,VWS V14.01,2013-07-10 09:46:00,
2013-07-10 04:51:00,79.0,65.8,29.94,South,186,0.0,0.0,64,0.00,,CLR,0.00,0.00,VWS V14.01,2013-07-10 09:51:00,
2013-07-10 04:56:00,79.0,65.8,29.94,South,186,0.0,0.0,64,0.00,,CLR,0.00,0.00,VWS V14.01,2013-07-10 09:56:00,
2013-07-10 05:01:00,78.8,65.6,29.94,South,186,0.0,0.0,64,0.00,,CLR,0.00,0.00,VWS V14.01,2013-07-10 10:01:00,
2013-07-10 05:06:00,78.8,65.6,29.94,South,186,0.0,0.0,64,0.00,,CLR,0.00,0.00,VWS V14.01,2013-07-10 10:06:00,
2013-07-10 05:10:00,78.8,65.6,29.94,South,186,0.0,0.0,64,0.00,,CLR,0.00,0.00,VWS V14.01,2013-07-10 10:10:00,
2013-07-10 05:15:00,78.6,65.9,29.94,South,186,0.0,0.0,65,0.00,,CLR,0.00,0.00,VWS V14.01,2013-07-10 10:15:00,
2013-07-10 05:20:00,78.6,66.3,29.94,South,186,0.0,0.0,66,0.00,,CLR,0.00,0.00,VWS V14.01,2013-07-10 10:20:00,
2013-07-10 05:25:00,78.6,66.3,29.94,South,186,0.0,0.0,66,0.00,,CLR,0.00,0.00,VWS V14.01,2013-07-10 10:25:00,
2013-07-10 05:30:00,78.4,66.1,29.94,South,186,0.0,0.0,66,0.00,,CLR,0.00,0.00,VWS V14.01,2013-07-10 10:30:00,
2013-07-10 05:35:00,78.4,66.1,29.94,South,186,0.0,0.0,66,0.00,,CLR,0.00,0.00,VWS V14.01,2013-07-10 10:35:00,
2013-07-10 05:40:00,78.3,66.0,29.94,South,186,0.0,0.0,66,0.00,,CLR,0.00,0.00,VWS V14.01,2013-07-10 10:40:00,
2013-07-10 05:45:00,78.3,66.0,29.93,South,186,0.0,0.0,66,0.00,,CLR,0.00,0.00,VWS V14.01,2013-07-10 10:45:00,
2013-07-10 05:50:00,78.1,65.8,29.93,South,186,0.0,0.0,66,0.00,,CLR,0.00,0.00,VWS V14.01,2013-07-10 10:50:00,
2013-07-10 05:55:00,78.1,66.3,29.93,South,186,0.0,0.0,67,0.00,,CLR,0.00,0.00,VWS V14.01,2013-07-10 10:55:00,
2013-07-10 06:00:00,77.9,66.1,29.93,South,186,0.0,0.0,67,0.00,,CLR,0.00,0.00,VWS V14.01,2013-07-10 11:00:00,
2013-07-10 06:05:00,77.9,66.1,29.93,South,186,0.0,0.0,67,0.00,,CLR,0.00,0.00,VWS V14.01,2013-07-10 11:05:00,
2013-07-10 06:10:00,77.7,66.3,29.93,South,186,0.0,0.0,68,0.00,,CLR,0.00,0.00,VWS V14.01,2013-07-10 11:10:00,
2013-07-10 06:15:00,77.7,66.3,29.94,South,186,0.0,0.0,68,0.00,,CLR,0.00,0.00,VWS V14.01,2013-07-10 11:15:00,
2013-07-10 06:20:00,77.7,66.3,29.94,South,186,0.0,0.0,68,0.00,,CLR,0.00,0.00,VWS V14.01,2013-07-10 11:20:00,
2013-07-10 06:25:00,77.5,66.1,29.94,South,186,0.0,0.0,68,0.00,,CLR,0.00,8.05,VWS V14.01,2013-07-10 11:25:00,
2013-07-10 06:30:00,77.5,66.1,29.94,South,186,0.0,0.0,68,0.00,,CLR,0.00,13.80,VWS V14.01,2013-07-10 11:30:00,
2013-07-10 06:35:00,77.3,65.9,29.94,South,186,0.0,0.0,68,0.00,,CLR,0.00,18.40,VWS V14.01,2013-07-10 11:35:00,
2013-07-10 06:40:00,77.3,66.3,29.94,South,186,0.0,0.0,69,0.00,,CLR,0.00,24.15,VWS V14.01,2013-07-10 11:40:00,
2013-07-10 06:45:00,77.1,66.2,29.94,South,186,0.0,0.0,69,0.00,,CLR,0.00,32.20,VWS V14.01,2013-07-10 11:45:00,
2013-07-10 06:50:00,77.1,66.2,29.94,South,186,0.0,0.0,69,0.00,,CLR,0.00,44.85,VWS V14.01,2013-07-10 11:50:00,
2013-07-10 06:55:00,77.1,66.6,29.94,South,186,0.0,0.0,70,0.00,,CLR,0.00,66.70,VWS V14.01,2013-07-10 11:55:00,
2013-07-10 07:00:00,77.1,66.6,29.93,South,186,0.0,0.0,70,0.00,,CLR,0.00,85.10,VWS V14.01,2013-07-10 12:00:00,
2013-07-10 07:05:00,77.1,66.6,29.93,South,186,0.0,0.0,70,0.00,,CLR,0.00,112.70,VWS V14.01,2013-07-10 12:05:00,
2013-07-10 07:10:00,77.3,66.3,29.93,South,186,0.0,0.0,69,0.00,,CLR,0.00,101.20,VWS V14.01,2013-07-10 12:10:00,
2013-07-10 07:15:00,77.3,65.9,29.94,South,186,0.0,0.0,68,0.00,,CLR,0.00,79.35,VWS V14.01,2013-07-10 12:15:00,
2013-07-10 07:20:00,77.7,66.3,29.94,South,186,0.0,0.0,68,0.00,,CLR,0.00,117.30,VWS V14.01,2013-07-10 12:20:00,
2013-07-10 07:25:00,77.9,66.5,29.94,South,186,0.0,0.0,68,0.00,,CLR,0.00,80.50,VWS V14.01,2013-07-10 12:25:00,
2013-07-10 07:30:00,78.1,66.3,29.94,South,186,0.0,0.0,67,0.00,,CLR,0.00,72.45,VWS V14.01,2013-07-10 12:30:00,
2013-07-10 07:35:00,78.3,66.4,29.94,South,186,0.0,0.0,67,0.00,,CLR,0.00,149.50,VWS V14.01,2013-07-10 12:35:00,
2013-07-10 07:40:00,79.0,66.7,29.94,South,186,0.0,3.0,66,0.00,,CLR,0.00,162.15,VWS V14.01,2013-07-10 12:40:00,
2013-07-10 07:45:00,79.4,66.6,29.93,South,186,0.0,4.0,65,0.00,,CLR,0.00,216.20,VWS V14.01,2013-07-10 12:45:00,
2013-07-10 07:50:00,79.9,66.2,29.93,SSE,166,0.0,5.0,63,0.00,,CLR,0.00,200.10,VWS V14.01,2013-07-10 12:50:00,
2013-07-10 07:55:00,79.9,66.2,29.93,SSE,167,0.0,3.0,63,0.00,,CLR,0.00,157.55,VWS V14.01,2013-07-10 12:55:00,
2013-07-10 08:00:00,80.3,66.6,29.94,SSE,167,0.0,0.0,63,0.00,,CLR,0.00,186.30,VWS V14.01,2013-07-10 13:00:00,
2013-07-10 08:05:00,80.7,66.5,29.94,South,169,0.0,0.0,62,0.00,,CLR,0.00,272.55,VWS V14.01,2013-07-10 13:05:00,
2013-07-10 08:10:00,81.1,66.4,29.94,South,177,0.0,3.0,61,0.00,,CLR,0.00,333.50,VWS V14.01,2013-07-10 13:10:00,
2013-07-10 08:15:00,81.9,66.2,29.94,South,173,0.0,5.0,59,0.00,,CLR,0.00,327.75,VWS V14.01,2013-07-10 13:15:00,
2013-07-10 08:20:00,82.3,66.6,29.94,South,173,0.0,5.0,59,0.00,,CLR,0.00,331.20,VWS V14.01,2013-07-10 13:20:00,
2013-07-10 08:25:00,82.6,65.8,29.94,South,169,0.0,7.0,57,0.00,,CLR,0.00,355.35,VWS V14.01,2013-07-10 13:25:00,
2013-07-10 08:30:00,83.0,66.7,29.95,South,169,0.0,0.0,58,0.00,,CLR,0.00,370.30,VWS V14.01,2013-07-10 13:30:00,
2013-07-10 08:35:00,82.8,66.5,29.95,SSE,167,0.0,2.0,58,0.00,,CLR,0.00,386.40,VWS V14.01,2013-07-10 13:35:00,
2013-07-10 08:40:00,83.2,66.4,29.95,South,172,0.0,3.0,57,0.00,,CLR,0.00,414.00,VWS V14.01,2013-07-10 13:40:00,
2013-07-10 08:45:00,83.4,66.1,29.95,SSW,206,2.0,6.0,56,0.00,,CLR,0.00,420.90,VWS V14.01,2013-07-10 13:45:00,
2013-07-10 08:50:00,83.8,66.4,29.95,SSW,204,4.0,4.0,56,0.00,,CLR,0.00,438.15,VWS V14.01,2013-07-10 13:50:00,
2013-07-10 08:55:00,84.2,66.3,29.95,SSW,207,0.0,4.0,55,0.00,,CLR,0.00,448.50,VWS V14.01,2013-07-10 13:55:00,
2013-07-10 09:00:00,84.8,66.3,29.95,SW,225,0.0,7.0,54,0.00,,CLR,0.00,471.50,VWS V14.01,2013-07-10 14:00:00,
2013-07-10 09:05:00,85.0,66.5,29.95,SW,225,0.0,0.0,54,0.00,,CLR,0.00,485.30,VWS V14.01,2013-07-10 14:05:00,
2013-07-10 09:10:00,85.0,67.0,29.95,SW,226,0.0,0.0,55,0.00,,CLR,0.00,496.80,VWS V14.01,2013-07-10 14:10:00,
2013-07-10 09:15:00,85.9,67.3,29.95,SW,223,0.0,1.0,54,0.00,,CLR,0.00,512.90,VWS V14.01,2013-07-10 14:15:00,
2013-07-10 09:20:00,86.9,67.2,29.95,SSW,212,1.0,3.0,52,0.00,,CLR,0.00,525.55,VWS V14.01,2013-07-10 14:20:00,
2013-07-10 09:25:00,86.1,66.4,29.95,SW,221,0.0,0.0,52,0.00,,CLR,0.00,546.25,VWS V14.01,2013-07-10 14:25:00,
2013-07-10 09:30:00,86.3,66.1,29.95,SSW,193,8.0,10.0,51,0.00,,CLR,0.00,568.10,VWS V14.01,2013-07-10 14:30:00,
2013-07-10 09:35:00,86.9,66.6,29.95,SSW,207,0.0,3.0,51,0.00,,CLR,0.00,581.90,VWS V14.01,2013-07-10 14:35:00,
2013-07-10 09:40:00,87.3,66.4,29.95,SW,219,0.0,9.0,50,0.00,,CLR,0.00,596.85,VWS V14.01,2013-07-10 14:40:00,
2013-07-10 09:45:00,87.5,67.2,29.94,SSW,204,2.0,7.0,51,0.00,,CLR,0.00,608.35,VWS V14.01,2013-07-10 14:45:00,
2013-07-10 09:50:00,88.0,67.1,29.94,SSW,213,0.0,10.0,50,0.00,,CLR,0.00,626.75,VWS V14.01,2013-07-10 14:50:00,
2013-07-10 09:55:00,88.2,66.1,29.94,SW,216,7.0,9.0,48,0.00,,CLR,0.00,640.55,VWS V14.01,2013-07-10 14:55:00,
2013-07-10 10:00:00,88.6,67.0,29.94,SSW,210,5.0,9.0,49,0.00,,FEW110,0.00,655.50,VWS V14.01,2013-07-10 15:00:00,
2013-07-10 10:05:00,89.0,66.8,29.94,SW,215,0.0,6.0,48,0.00,,FEW110,0.00,669.30,VWS V14.01,2013-07-10 15:05:00,
2013-07-10 10:10:00,88.8,67.2,29.94,SW,223,1.0,12.0,49,0.00,,FEW110,0.00,685.40,VWS V14.01,2013-07-10 15:10:00,
2013-07-10 10:15:00,89.5,66.6,29.94,SSW,209,0.0,10.0,47,0.00,,FEW110,0.00,699.20,VWS V14.01,2013-07-10 15:15:00,
2013-07-10 10:20:00,89.5,67.2,29.94,SW,236,6.0,10.0,48,0.00,,FEW110,0.00,714.15,VWS V14.01,2013-07-10 15:20:00,
2013-07-10 10:25:00,89.7,67.4,29.94,South,180,8.0,11.0,48,0.00,,FEW110,0.00,727.95,VWS V14.01,2013-07-10 15:25:00,
2013-07-10 10:30:00,90.6,67.0,29.93,SSW,202,0.0,11.0,46,0.00,,FEW110,0.00,747.50,VWS V14.01,2013-07-10 15:30:00,
2013-07-10 10:35:00,91.2,66.9,29.93,SW,229,0.0,10.0,45,0.00,,FEW110,0.00,760.15,VWS V14.01,2013-07-10 15:35:00,
2013-07-10 10:40:00,91.0,66.7,29.93,SW,231,0.0,4.0,45,0.00,,FEW110,0.00,770.50,VWS V14.01,2013-07-10 15:40:00,
2013-07-10 10:45:00,91.4,66.4,29.93,SW,219,0.0,4.0,44,0.00,,FEW110,0.00,788.90,VWS V14.01,2013-07-10 15:45:00,
2013-07-10 10:50:00,92.1,66.4,29.93,WSW,243,7.0,9.0,43,0.00,,FEW110,0.00,816.50,VWS V14.01,2013-07-10 15:50:00,
2013-07-10 10:55:00,92.3,66.6,29.93,SW,230,0.0,6.0,43,0.00,,FEW110,0.00,906.20,VWS V14.01,2013-07-10 15:55:00,
2013-07-10 11:00:00,92.8,67.7,29.94,SW,234,0.0,8.0,44,0.00,,FEW110,0.00,972.90,VWS V14.01,2013-07-10 16:00:00,
2013-07-10 11:05:00,92.8,67.0,29.94,SW,236,0.0,4.0,43,0.00,,CLR,0.00,303.60,VWS V14.01,2013-07-10 16:05:00,
2013-07-10 11:10:00,92.3,66.6,29.94,WSW,250,0.0,5.0,43,0.00,,CLR,0.00,288.65,VWS V14.01,2013-07-10 16:10:00,
2013-07-10 11:15:00,91.2,66.3,29.94,West,261,0.0,11.0,44,0.00,,CLR,0.00,280.60,VWS V14.01,2013-07-10 16:15:00,
2013-07-10 11:20:00,92.3,66.6,29.94,SW,219,0.0,7.0,43,0.00,,CLR,0.00,1047.65,VWS V14.01,2013-07-10 16:20:00,
2013-07-10 11:25:00,93.2,66.7,29.94,SW,224,0.0,6.0,42,0.00,,CLR,0.00,354.20,VWS V14.01,2013-07-10 16:25:00,
2013-07-10 11:30:00,93.6,66.4,29.94,SW,232,0.0,3.0,41,0.00,,CLR,0.00,1006.25,VWS V14.01,2013-07-10 16:30:00,
2013-07-10 11:35:00,94.1,66.8,29.94,WSW,242,0.0,5.0,41,0.00,,CLR,0.00,968.30,VWS V14.01,2013-07-10 16:35:00,
2013-07-10 11:40:00,94.6,66.6,29.94,SW,226,0.0,8.0,40,0.00,,CLR,0.00,1051.10,VWS V14.01,2013-07-10 16:40:00,
2013-07-10 11:45:00,94.8,66.7,29.94,SW,217,0.0,10.0,40,0.00,,CLR,0.00,349.60,VWS V14.01,2013-07-10 16:45:00,
2013-07-10 11:50:00,93.9,66.6,29.94,WSW,240,0.0,6.0,41,0.00,,CLR,0.00,339.25,VWS V14.01,2013-07-10 16:50:00,
2013-07-10 11:55:00,94.1,66.1,29.94,WSW,243,0.0,2.0,40,0.00,,CLR,0.00,434.70,VWS V14.01,2013-07-10 16:55:00,
2013-07-10 12:00:00,94.8,66.7,29.94,SSW,204,0.0,6.0,40,0.00,,CLR,0.00,877.45,VWS V14.01,2013-07-10 17:00:00,
2013-07-10 12:05:00,95.6,66.7,29.94,SSW,206,0.0,0.0,39,0.00,,CLR,0.00,1097.10,VWS V14.01,2013-07-10 17:05:00,
2013-07-10 12:10:00,94.6,67.3,29.94,WNW,284,0.0,9.0,41,0.00,,CLR,0.00,998.20,VWS V14.01,2013-07-10 17:10:00,
2013-07-10 12:15:00,94.6,68.0,29.94,WNW,288,0.0,0.0,42,0.00,,CLR,0.00,974.05,VWS V14.01,2013-07-10 17:15:00,
2013-07-10 12:20:00,95.8,66.9,29.94,West,281,0.0,0.0,39,0.00,,CLR,0.00,966.00,VWS V14.01,2013-07-10 17:20:00,
2013-07-10 12:25:00,96.5,66.0,29.94,WNW,283,0.0,0.0,37,0.00,,CLR,0.00,962.55,VWS V14.01,2013-07-10 17:25:00,
2013-07-10 12:30:00,95.8,66.1,29.93,WNW,283,0.0,0.0,38,0.00,,CLR,0.00,966.00,VWS V14.01,2013-07-10 17:30:00,
2013-07-10 12:35:00,96.3,68.1,29.93,WNW,284,0.0,5.0,40,0.00,,CLR,0.00,966.00,VWS V14.01,2013-07-10 17:35:00,
2013-07-10 12:40:00,96.7,66.9,29.93,WNW,284,0.0,0.0,38,0.00,,CLR,0.00,974.05,VWS V14.01,2013-07-10 17:40:00,
2013-07-10 12:45:00,97.5,66.9,29.93,WNW,283,4.0,5.0,37,0.00,,CLR,0.00,980.95,VWS V14.01,2013-07-10 17:45:00,
2013-07-10 12:50:00,97.7,66.2,29.93,WNW,282,0.0,0.0,36,0.00,,CLR,0.00,982.10,VWS V14.01,2013-07-10 17:50:00,
2013-07-10 12:55:00,98.4,66.1,29.93,West,281,0.0,0.0,35,0.00,,CLR,0.00,990.15,VWS V14.01,2013-07-10 17:55:00,
2013-07-10 13:00:00,98.4,67.7,29.93,WNW,284,0.0,5.0,37,0.00,,CLR,0.00,1016.60,VWS V14.01,2013-07-10 18:00:00,
2013-07-10 13:05:00,98.9,67.3,29.93,WNW,286,0.0,0.0,36,0.00,,SCT110,0.00,1016.60,VWS V14.01,2013-07-10 18:05:00,
2013-07-10 13:10:00,99.7,67.2,29.93,West,281,0.0,5.0,35,0.00,,SCT110,0.00,1035.00,VWS V14.01,2013-07-10 18:10:00,
2013-07-10 13:15:00,100.5,66.2,29.92,SSW,198,0.0,7.0,33,0.00,,SCT110,0.00,1122.40,VWS V14.01,2013-07-10 18:15:00,
2013-07-10 13:20:00,99.7,67.2,29.92,SSW,194,0.0,5.0,35,0.00,,SCT110,0.00,604.90,VWS V14.01,2013-07-10 18:20:00,
2013-07-10 13:25:00,98.7,66.3,29.92,SSW,202,0.0,1.0,35,0.00,,SCT110,0.00,614.10,VWS V14.01,2013-07-10 18:25:00,
2013-07-10 13:30:00,97.7,66.2,29.92,SSW,207,0.0,0.0,36,0.00,,SCT110,0.00,855.60,VWS V14.01,2013-07-10 18:30:00,
2013-07-10 13:35:00,97.9,66.4,29.92,SSW,211,0.0,0.0,36,0.00,,SCT110,0.00,547.40,VWS V14.01,2013-07-10 18:35:00,
2013-07-10 13:40:00,98.4,66.1,29.92,SSW,211,0.0,0.0,35,0.00,,SCT110,0.00,622.15,VWS V14.01,2013-07-10 18:40:00,
2013-07-10 13:45:00,97.7,67.1,29.92,SSW,210,0.0,0.0,37,0.00,,SCT110,0.00,388.70,VWS V14.01,2013-07-10 18:45:00,
2013-07-10 13:50:00,97.7,66.2,29.92,SSW,211,0.0,5.0,36,0.00,,SCT110,0.00,370.30,VWS V14.01,2013-07-10 18:50:00,
2013-07-10 13:55:00,97.5,68.4,29.92,SSW,211,0.0,0.0,39,0.00,,SCT110,0.00,357.65,VWS V14.01,2013-07-10 18:55:00,
2013-07-10 14:00:00,97.5,67.6,29.91,SSW,211,0.0,0.0,38,0.00,,SCT110,0.00,501.40,VWS V14.01,2013-07-10 19:00:00,
2013-07-10 14:05:00,97.7,67.1,29.91,SSW,211,0.0,0.0,37,0.00,,CLR,0.00,493.35,VWS V14.01,2013-07-10 19:05:00,
2013-07-10 14:10:00,97.9,67.2,29.91,SSW,211,0.0,0.0,37,0.00,,CLR,0.00,952.20,VWS V14.01,2013-07-10 19:10:00,
2013-07-10 14:15:00,99.5,66.2,29.91,SSW,205,0.0,7.0,34,0.00,,CLR,0.00,1312.15,VWS V14.01,2013-07-10 19:15:00,
2013-07-10 14:20:00,100.8,67.3,29.91,SSW,208,3.0,5.0,34,0.00,,CLR,0.00,424.35,VWS V14.01,2013-07-10 19:20:00,
2013-07-10 14:25:00,99.5,66.2,29.91,WSW,246,0.0,7.0,34,0.00,,CLR,0.00,402.50,VWS V14.01,2013-07-10 19:25:00,
2013-07-10 14:30:00,97.9,67.2,29.91,WSW,252,0.0,1.0,37,0.00,,CLR,0.00,420.90,VWS V14.01,2013-07-10 19:30:00,
2013-07-10 14:35:00,98.4,66.9,29.91,WSW,254,0.0,2.0,36,0.00,,CLR,0.00,450.80,VWS V14.01,2013-07-10 19:35:00,
2013-07-10 14:40:00,98.7,67.1,29.91,West,266,0.0,5.0,36,0.00,,CLR,0.00,531.30,VWS V14.01,2013-07-10 19:40:00,
2013-07-10 14:45:00,98.9,67.3,29.90,WSW,248,4.0,4.0,36,0.00,,CLR,0.00,946.45,VWS V14.01,2013-07-10 19:45:00,
2013-07-10 14:50:00,100.8,68.2,29.90,WSW,242,0.0,6.0,35,0.00,,CLR,0.00,1114.35,VWS V14.01,2013-07-10 19:50:00,
2013-07-10 14:55:00,100.5,67.1,29.90,WSW,241,0.0,5.0,34,0.00,,CLR,0.00,1208.65,VWS V14.01,2013-07-10 19:55:00,
2013-07-10 15:00:00,101.0,67.5,29.90,WSW,251,0.0,6.0,34,0.00,,CLR,0.00,1112.05,VWS V14.01,2013-07-10 20:00:00,
2013-07-10 15:05:00,101.3,66.0,29.90,West,276,5.0,11.0,32,0.00,,CLR,0.00,1139.65,VWS V14.01,2013-07-10 20:05:00,
2013-07-10 15:10:00,102.1,67.6,29.90,WSW,254,5.0,10.0,33,0.00,,CLR,0.00,1059.15,VWS V14.01,2013-07-10 20:10:00,
2013-07-10 15:15:00,101.3,66.9,29.90,SW,232,2.0,7.0,33,0.00,,CLR,0.00,1029.25,VWS V14.01,2013-07-10 20:15:00,
2013-07-10 15:20:00,100.8,66.4,29.90,WNW,284,6.0,10.0,33,0.00,,CLR,0.00,1018.90,VWS V14.01,2013-07-10 20:20:00,
2013-07-10 15:25:00,101.0,66.6,29.90,WSW,243,0.0,0.0,33,0.00,,CLR,0.00,906.20,VWS V14.01,2013-07-10 20:25:00,
2013-07-10 15:30:00,101.3,66.0,29.89,NW,308,0.0,11.0,32,0.00,,CLR,0.00,861.35,VWS V14.01,2013-07-10 20:30:00,
2013-07-10 15:35:00,100.2,66.8,29.89,West,275,0.0,7.0,34,0.00,,CLR,0.00,842.95,VWS V14.01,2013-07-10 20:35:00,
2013-07-10 15:40:00,100.8,65.6,29.89,WSW,246,0.0,9.0,32,0.00,,CLR,0.00,826.85,VWS V14.01,2013-07-10 20:40:00,
2013-07-10 15:45:00,100.8,66.4,29.89,West,265,3.0,7.0,33,0.00,,CLR,0.00,814.20,VWS V14.01,2013-07-10 20:45:00,
2013-07-10 15:50:00,100.8,67.3,29.89,SW,231,0.0,9.0,34,0.00,,CLR,0.00,800.40,VWS V14.01,2013-07-10 20:50:00,
2013-07-10 15:55:00,100.8,66.4,29.89,West,265,0.0,10.0,33,0.00,,CLR,0.00,796.95,VWS V14.01,2013-07-10 20:55:00,
2013-07-10 16:00:00,100.5,66.2,29.89,WSW,246,2.0,5.0,33,0.00,,CLR,0.00,784.30,VWS V14.01,2013-07-10 21:00:00,
2013-07-10 16:05:00,100.8,65.6,29.89,SW,218,0.0,12.0,32,0.00,,FEW120,0.00,778.55,VWS V14.01,2013-07-10 21:05:00,
2013-07-10 16:10:00,100.8,66.4,29.89,SW,232,0.0,10.0,33,0.00,,FEW120,0.00,763.60,VWS V14.01,2013-07-10 21:10:00,
2013-07-10 16:15:00,100.5,65.3,29.89,SW,231,0.0,0.0,32,0.00,,FEW120,0.00,749.80,VWS V14.01,2013-07-10 21:15:00,
2013-07-10 16:20:00,100.2,65.9,29.89,SW,233,0.0,4.0,33,0.00,,FEW120,0.00,596.85,VWS V14.01,2013-07-10 21:20:00,
2013-07-10 16:25:00,99.5,67.8,29.89,West,271,11.0,11.0,36,0.00,,FEW120,0.00,311.65,VWS V14.01,2013-07-10 21:25:00,
2013-07-10 16:30:00,100.5,67.9,29.87,West,274,0.0,7.0,35,0.00,,FEW120,0.00,157.55,VWS V14.01,2013-07-10 21:30:00,
2013-07-10 16:35:00,101.0,66.6,29.87,West,270,0.0,6.0,33,0.00,,FEW120,0.00,129.95,VWS V14.01,2013-07-10 21:35:00,
2013-07-10 16:40:00,101.0,67.5,29.87,West,265,0.0,5.0,34,0.00,,FEW120,0.00,464.60,VWS V14.01,2013-07-10 21:40:00,
2013-07-10 16:45:00,101.3,66.0,29.87,SW,234,1.0,11.0,32,0.00,,FEW120,0.00,428.95,VWS V14.01,2013-07-10 21:45:00,
2013-07-10 16:50:00,100.2,65.9,29.87,West,277,0.0,9.0,33,0.00,,FEW120,0.00,327.75,VWS V14.01,2013-07-10 21:50:00,
2013-07-10 16:55:00,100.2,65.9,29.87,SW,225,5.0,7.0,33,0.00,,FEW120,0.00,131.10,VWS V14.01,2013-07-10 21:55:00,
2013-07-10 17:00:00,100.5,66.2,29.86,WSW,247,0.0,6.0,33,0.00,,FEW120,0.00,304.75,VWS V14.01,2013-07-10 22:00:00,
2013-07-10 17:05:00,99.2,65.1,29.86,West,260,0.0,6.0,33,0.00,,CLR,0.00,146.05,VWS V14.01,2013-07-10 22:05:00,
2013-07-10 17:10:00,99.5,64.4,29.86,WSW,254,4.0,11.0,32,0.00,,CLR,0.00,138.00,VWS V14.01,2013-07-10 22:10:00,
2013-07-10 17:15:00,100.0,64.9,29.86,West,277,0.0,11.0,32,0.00,,CLR,0.00,135.70,VWS V14.01,2013-07-10 22:15:00,
2013-07-10 17:20:00,99.2,64.2,29.86,NNW,346,0.0,9.0,32,0.00,,CLR,0.00,133.40,VWS V14.01,2013-07-10 22:20:00,
2013-07-10 17:25:00,98.4,64.4,29.86,WNW,291,0.0,7.0,33,0.00,,CLR,0.00,141.45,VWS V14.01,2013-07-10 22:25:00,
2013-07-10 17:30:00,98.4,65.2,29.86,WNW,290,0.0,5.0,34,0.00,,CLR,0.00,139.15,VWS V14.01,2013-07-10 22:30:00,
2013-07-10 17:35:00,98.9,64.8,29.86,WNW,287,0.0,6.0,33,0.00,,CLR,0.00,115.00,VWS V14.01,2013-07-10 22:35:00,
2013-07-10 17:40:00,98.9,64.8,29.86,WNW,285,0.0,5.0,33,0.00,,CLR,0.00,261.05,VWS V14.01,2013-07-10 22:40:00,
2013-07-10 17:45:00,99.2,65.1,29.85,WNW,285,0.0,0.0,33,0.00,,CLR,0.00,200.10,VWS V14.01,2013-07-10 22:45:00,
2013-07-10 17:50:00,99.5,64.4,29.85,West,281,0.0,7.0,32,0.00,,CLR,0.00,213.90,VWS V14.01,2013-07-10 22:50:00,
2013-07-10 17:55:00,99.5,65.3,29.85,West,273,2.0,9.0,33,0.00,,CLR,0.00,208.15,VWS V14.01,2013-07-10 22:55:00,
2013-07-10 18:00:00,99.7,65.5,29.85,West,270,0.0,9.0,33,0.00,,CLR,0.00,151.80,VWS V14.01,2013-07-10 23:00:00,
2013-07-10 18:05:00,99.7,64.6,29.85,West,273,0.0,7.0,32,0.00,,CLR,0.00,458.85,VWS V14.01,2013-07-10 23:05:00,
2013-07-10 18:10:00,100.0,65.8,29.85,WSW,254,3.0,7.0,33,0.00,,CLR,0.00,230.00,VWS V14.01,2013-07-10 23:10:00,
2013-07-10 18:15:00,100.2,65.9,29.85,WSW,250,4.0,6.0,33,0.00,,CLR,0.00,250.70,VWS V14.01,2013-07-10 23:15:00,
2013-07-10 18:20:00,99.7,65.5,29.85,WSW,258,2.0,6.0,33,0.00,,CLR,0.00,167.90,VWS V14.01,2013-07-10 23:20:00,
2013-07-10 18:25:00,99.7,65.5,29.85,SSW,208,0.0,11.0,33,0.00,,CLR,0.00,149.50,VWS V14.01,2013-07-10 23:25:00,
2013-07-10 18:30:00,98.9,64.8,29.85,WSW,250,0.0,0.0,33,0.00,,CLR,0.00,143.75,VWS V14.01,2013-07-10 23:30:00,
2013-07-10 18:35:00,98.9,65.7,29.85,SW,228,0.0,3.0,34,0.00,,CLR,0.00,146.05,VWS V14.01,2013-07-10 23:35:00,
2013-07-10 18:40:00,98.4,66.1,29.85,SW,229,0.0,5.0,35,0.00,,CLR,0.00,154.10,VWS V14.01,2013-07-10 23:40:00,
2013-07-10 18:45:00,98.4,65.2,29.84,SW,221,0.0,11.0,34,0.00,,CLR,0.00,143.75,VWS V14.01,2013-07-10 23:45:00,
2013-07-10 18:50:00,97.7,65.4,29.84,WSW,258,0.0,0.0,35,0.00,,CLR,0.00,119.60,VWS V14.01,2013-07-10 23:50:00,
2013-07-10 18:55:00,97.7,65.4,29.84,West,271,0.0,0.0,35,0.00,,CLR,0.00,85.10,VWS V14.01,2013-07-10 23:55:00,
2013-07-10 19:00:00,97.5,65.3,29.84,West,263,0.0,0.0,35,0.00,,CLR,0.00,64.40,VWS V14.01,2013-07-11 00:00:00,
2013-07-10 19:05:00,97.2,65.0,29.84,West,275,5.0,9.0,35,0.00,,CLR,0.00,44.85,VWS V14.01,2013-07-11 00:05:00,
2013-07-10 19:10:00,96.7,65.4,29.84,West,277,0.0,4.0,36,0.00,,CLR,0.00,36.80,VWS V14.01,2013-07-11 00:10:00,
2013-07-10 19:15:00,96.7,66.2,29.84,West,275,0.0,0.0,37,0.00,,CLR,0.00,28.75,VWS V14.01,2013-07-11 00:15:00,
2013-07-10 19:20:00,96.3,68.1,29.84,West,259,0.0,1.0,40,0.00,,CLR,0.00,26.45,VWS V14.01,2013-07-11 00:20:00,
2013-07-10 19:25:00,95.8,67.6,29.84,SSW,207,0.0,7.0,40,0.00,,CLR,0.00,26.45,VWS V14.01,2013-07-11 00:25:00,
2013-07-10 19:30:00,95.6,68.2,29.84,SW,214,0.0,1.0,41,0.00,,CLR,0.00,26.45,VWS V14.01,2013-07-11 00:30:00,
2013-07-10 19:35:00,95.1,69.1,29.84,SSW,194,6.0,6.0,43,0.00,,CLR,0.00,28.75,VWS V14.01,2013-07-11 00:35:00,
2013-07-10 19:40:00,94.4,68.5,29.84,SSW,209,5.0,7.0,43,0.00,,CLR,0.00,32.20,VWS V14.01,2013-07-11 00:40:00,
2013-07-10 19:45:00,93.9,68.7,29.84,SW,230,0.0,5.0,44,0.00,,CLR,0.00,36.80,VWS V14.01,2013-07-11 00:45:00,
2013-07-10 19:50:00,93.6,68.4,29.85,SSW,213,0.0,5.0,44,0.00,,CLR,0.00,34.50,VWS V14.01,2013-07-11 00:50:00,
2013-07-10 19:55:00,93.4,68.2,29.85,SW,219,0.0,4.0,44,0.00,,CLR,0.00,28.75,VWS V14.01,2013-07-11 00:55:00,
2013-07-10 20:00:00,93.2,68.7,29.85,SW,220,0.0,0.0,45,0.00,,CLR,0.00,24.15,VWS V14.01,2013-07-11 01:00:00,
2013-07-10 20:05:00,93.0,68.5,29.85,SW,221,0.0,0.0,45,0.00,,CLR,0.00,24.15,VWS V14.01,2013-07-11 01:05:00,
2013-07-10 20:10:00,92.8,68.4,29.85,SW,221,0.0,0.0,45,0.00,,CLR,0.00,21.85,VWS V14.01,2013-07-11 01:10:00,
2013-07-10 20:15:00,92.8,69.0,29.86,SW,221,0.0,0.0,46,0.00,,CLR,0.00,20.70,VWS V14.01,2013-07-11 01:15:00,
2013-07-10 20:20:00,92.5,68.7,29.86,SW,221,0.0,0.0,46,0.00,,CLR,0.00,16.10,VWS V14.01,2013-07-11 01:20:00,
2013-07-10 20:25:00,92.3,68.5,29.86,SW,221,0.0,0.0,46,0.00,,CLR,0.00,13.80,VWS V14.01,2013-07-11 01:25:00,
2013-07-10 20:30:00,92.1,69.0,29.86,SW,221,0.0,0.0,47,0.00,,CLR,0.00,8.05,VWS V14.01,2013-07-11 01:30:00,
2013-07-10 20:35:00,91.9,68.8,29.86,SW,221,0.0,0.0,47,0.00,,CLR,0.00,5.75,VWS V14.01,2013-07-11 01:35:00,
2013-07-10 20:40:00,91.7,68.6,29.86,SW,221,0.0,0.0,47,0.00,,CLR,0.00,0.00,VWS V14.01,2013-07-11 01:40:00,
2013-07-10 20:45:00,91.7,69.2,29.87,SW,221,0.0,0.0,48,0.00,,CLR,0.00,0.00,VWS V14.01,2013-07-11 01:45:00,
2013-07-10 20:50:00,91.4,69.0,29.87,SW,221,0.0,0.0,48,0.00,,CLR,0.00,0.00,VWS V14.01,2013-07-11 01:50:00,
2013-07-10 20:55:00,91.2,69.4,29.87,SW,232,0.0,0.0,49,0.00,,CLR,0.00,0.00,VWS V14.01,2013-07-11 01:55:00,
2013-07-10 21:00:00,91.0,69.2,29.87,SW,232,0.0,0.0,49,0.00,,CLR,0.00,0.00,VWS V14.01,2013-07-11 02:00:00,
2013-07-10 21:05:00,90.8,69.0,29.87,SW,232,0.0,0.0,49,0.00,,FEW120,0.00,0.00,VWS V14.01,2013-07-11 02:05:00,
2013-07-10 21:10:00,90.8,69.6,29.87,SW,232,0.0,0.0,50,0.00,,FEW120,0.00,0.00,VWS V14.01,2013-07-11 02:10:00,
2013-07-10 21:15:00,90.3,69.7,29.87,SW,232,0.0,0.0,51,0.00,,FEW120,0.00,0.00,VWS V14.01,2013-07-11 02:15:00,
2013-07-10 21:20:00,90.1,69.6,29.87,SW,232,0.0,0.0,51,0.00,,FEW120,0.00,0.00,VWS V14.01,2013-07-11 02:20:00,
2013-07-10 21:25:00,89.9,69.9,29.87,SW,232,0.0,0.0,52,0.00,,FEW120,0.00,0.00,VWS V14.01,2013-07-11 02:25:00,
2013-07-10 21:30:00,89.9,69.9,29.87,SW,232,0.0,0.0,52,0.00,,FEW120,0.00,0.00,VWS V14.01,2013-07-11 02:30:00,
2013-07-10 21:35:00,89.7,69.8,29.87,SW,232,0.0,0.0,52,0.00,,FEW120,0.00,0.00,VWS V14.01,2013-07-11 02:35:00,
2013-07-10 21:40:00,89.5,70.1,29.87,SW,232,0.0,0.0,53,0.00,,FEW120,0.00,0.00,VWS V14.01,2013-07-11 02:40:00,
2013-07-10 21:45:00,89.2,69.8,29.88,SW,232,0.0,0.0,53,0.00,,FEW120,0.00,0.00,VWS V14.01,2013-07-11 02:45:00,
2013-07-10 21:50:00,89.2,69.8,29.88,SW,232,0.0,0.0,53,0.00,,FEW120,0.00,0.00,VWS V14.01,2013-07-11 02:50:00,
2013-07-10 21:55:00,89.0,69.7,29.88,SW,232,0.0,0.0,53,0.00,,FEW120,0.00,0.00,VWS V14.01,2013-07-11 02:55:00,
2013-07-10 22:00:00,89.0,69.7,29.88,SW,232,0.0,0.0,53,0.00,,FEW120,0.00,0.00,VWS V14.01,2013-07-11 03:00:00,
2013-07-10 22:05:00,88.8,70.0,29.89,SW,232,0.0,0.0,54,0.00,,CLR,0.00,0.00,VWS V14.01,2013-07-11 03:05:00,
2013-07-10 22:10:00,88.6,69.3,29.89,SW,232,0.0,0.0,53,0.00,,CLR,0.00,0.00,VWS V14.01,2013-07-11 03:10:00,
2013-07-10 22:15:00,88.6,70.4,29.89,SW,232,0.0,0.0,55,0.00,,CLR,0.00,0.00,VWS V14.01,2013-07-11 03:15:00,
2013-07-10 22:20:00,88.4,70.2,29.89,SW,232,0.0,0.0,55,0.00,,CLR,0.00,0.00,VWS V14.01,2013-07-11 03:20:00,
2013-07-10 22:25:00,88.2,70.0,29.89,SW,232,0.0,0.0,55,0.00,,CLR,0.00,0.00,VWS V14.01,2013-07-11 03:25:00,
2013-07-10 22:30:00,88.0,70.3,29.89,SW,232,0.0,0.0,56,0.00,,CLR,0.00,0.00,VWS V14.01,2013-07-11 03:30:00,
2013-07-10 22:35:00,87.8,70.2,29.90,SW,232,0.0,0.0,56,0.00,,CLR,0.00,0.00,VWS V14.01,2013-07-11 03:35:00,
2013-07-10 22:40:00,87.8,70.2,29.90,SW,232,0.0,0.0,56,0.00,,CLR,0.00,0.00,VWS V14.01,2013-07-11 03:40:00,
2013-07-10 22:45:00,87.5,70.4,29.90,SW,232,0.0,0.0,57,0.00,,CLR,0.00,0.00,VWS V14.01,2013-07-11 03:45:00,
2013-07-10 22:50:00,87.3,70.7,29.90,SW,232,0.0,0.0,58,0.00,,CLR,0.00,0.00,VWS V14.01,2013-07-11 03:50:00,
2013-07-10 22:55:00,87.1,70.5,29.90,SW,232,0.0,0.0,58,0.00,,CLR,0.00,0.00,VWS V14.01,2013-07-11 03:55:00,
2013-07-10 23:00:00,86.9,70.9,29.90,SW,232,0.0,0.0,59,0.00,,CLR,0.00,0.00,VWS V14.01,2013-07-11 04:00:00,
2013-07-10 23:01:00,86.9,70.9,29.90,SW,232,0.0,0.0,59,0.00,,CLR,0.00,0.00,VWS V14.01,2013-07-11 04:01:00,
2013-07-10 23:06:00,86.7,70.7,29.90,SW,232,0.0,0.0,59,0.00,,CLR,0.00,0.00,VWS V14.01,2013-07-11 04:06:00,
2013-07-10 23:11:00,86.7,70.7,29.90,SW,232,0.0,0.0,59,0.00,,CLR,0.00,0.00,VWS V14.01,2013-07-11 04:11:00,
2013-07-10 23:16:00,86.5,70.5,29.90,SW,232,0.0,0.0,59,0.00,,CLR,0.00,0.00,VWS V14.01,2013-07-11 04:16:00,
2013-07-10 23:21:00,86.3,70.8,29.90,SW,232,0.0,0.0,60,0.00,,CLR,0.00,0.00,VWS V14.01,2013-07-11 04:21:00,
2013-07-10 23:26:00,86.1,70.6,29.90,SW,232,0.0,0.0,60,0.00,,CLR,0.00,0.00,VWS V14.01,2013-07-11 04:26:00,
2013-07-10 23:31:00,85.9,70.4,29.90,SW,232,0.0,0.0,60,0.00,,CLR,0.00,0.00,VWS V14.01,2013-07-11 04:31:00,
2013-07-10 23:36:00,85.7,70.2,29.90,SW,232,0.0,0.0,60,0.00,,CLR,0.00,0.00,VWS V14.01,2013-07-11 04:36:00,
2013-07-10 23:41:00,85.7,70.7,29.90,SW,232,0.0,0.0,61,0.00,,CLR,0.00,0.00,VWS V14.01,2013-07-11 04:41:00,
2013-07-10 23:46:00,85.5,71.0,29.89,SW,232,0.0,0.0,62,0.00,,CLR,0.00,0.00,VWS V14.01,2013-07-11 04:46:00,
2013-07-10 23:51:00,85.2,70.7,29.89,SW,232,0.0,0.0,62,0.00,,CLR,0.00,0.00,VWS V14.01,2013-07-11 04:51:00,
2013-07-10 23:56:00,85.2,70.7,29.89,SW,232,0.0,0.0,62,0.00,,CLR,0.00,0.00,VWS V14.01,2013-07-11 04:56:00,